TimeEDT,TemperatureF,Dew PointF,Humidity,Sea Level PressureIn,VisibilityMPH,Wind Direction,Wind SpeedMPH,Gust SpeedMPH,PrecipitationIn,Events,Conditions,WindDirDegrees,DateUTC
12:53 AM,59.0,54.0,83,30.07,10.0,East,3.5,-,N/A,,Mostly Cloudy,100,2013-09-16 04:53:00
1:53 AM,59.0,54.0,83,30.07,10.0,Calm,Calm,-,N/A,,Mostly Cloudy,0,2013-09-16 05:53:00
2:53 AM,57.0,54.0,89,30.06,9.0,Calm,Calm,-,N/A,,Scattered Clouds,0,2013-09-16 06:53:00
3:53 AM,57.9,55.0,90,30.06,9.0,Calm,Calm,-,N/A,,Partly Cloudy,0,2013-09-16 07:53:00
4:53 AM,57.9,55.9,93,30.05,8.0,Calm,Calm,-,0.00,Rain,Light Rain,0,2013-09-16 08:53:00
5:53 AM,57.9,55.9,93,30.06,6.0,Calm,Calm,-,0.00,,Overcast,0,2013-09-16 09:53:00
6:53 AM,60.1,57.0,90,30.09,5.0,NNW,6.9,-,0.01,Rain,Rain,340,2013-09-16 10:53:00
7:53 AM,59.0,55.9,90,30.10,4.0,North,8.1,-,0.02,Rain,Rain,360,2013-09-16 11:53:00
8:40 AM,57.2,55.4,94,30.11,2.5,Calm,Calm,-,0.06,Rain,Rain,0,2013-09-16 12:40:00
8:53 AM,57.9,55.9,93,30.11,1.0,Calm,Calm,-,0.12,Rain,Heavy Rain,0,2013-09-16 12:53:00
9:08 AM,57.2,55.4,94,30.11,3.0,Calm,Calm,-,0.02,Rain,Rain,0,2013-09-16 13:08:00
9:53 AM,57.9,55.9,93,30.12,6.0,Calm,Calm,-,0.03,Rain,Light Rain,0,2013-09-16 13:53:00
10:53 AM,62.1,57.9,86,30.12,8.0,NNW,6.9,-,0.00,,Overcast,330,2013-09-16 14:53:00
11:53 AM,63.0,57.0,81,30.13,9.0,NW,6.9,-,N/A,,Overcast,320,2013-09-16 15:53:00
12:53 PM,66.9,57.0,70,30.12,10.0,Variable,6.9,-,N/A,,Partly Cloudy,0,2013-09-16 16:53:00
1:15 PM,66.2,55.4,68,30.12,10.0,North,8.1,-,N/A,,Mostly Cloudy,360,2013-09-16 17:15:00
1:24 PM,66.2,53.6,64,30.12,10.0,NNW,12.7,20.7,N/A,,Mostly Cloudy,340,2013-09-16 17:24:00
1:53 PM,70.0,52.0,53,30.12,10.0,NNW,11.5,-,N/A,,Mostly Cloudy,330,2013-09-16 17:53:00
2:53 PM,68.0,51.1,55,30.12,10.0,North,10.4,-,N/A,,Mostly Cloudy,350,2013-09-16 18:53:00
3:53 PM,69.1,51.1,53,30.11,10.0,NNW,9.2,-,N/A,,Overcast,330,2013-09-16 19:53:00
4:53 PM,68.0,50.0,52,30.12,10.0,NNW,8.1,18.4,N/A,,Mostly Cloudy,340,2013-09-16 20:53:00
5:53 PM,69.1,50.0,51,30.13,10.0,NNW,9.2,-,N/A,,Clear,340,2013-09-16 21:53:00
6:53 PM,64.0,51.1,63,30.14,10.0,NNE,4.6,-,N/A,,Clear,30,2013-09-16 22:53:00
7:53 PM,61.0,52.0,72,30.16,10.0,North,4.6,-,N/A,,Mostly Cloudy,360,2013-09-16 23:53:00
8:53 PM,60.1,51.1,72,30.20,10.0,Calm,Calm,-,N/A,,Clear,0,2013-09-17 00:53:00
9:53 PM,57.0,50.0,77,30.23,10.0,NNE,4.6,-,N/A,,Clear,20,2013-09-17 01:53:00
10:53 PM,57.0,50.0,77,30.25,10.0,NE,8.1,-,N/A,,Clear,40,2013-09-17 02:53:00
11:53 PM,54.0,48.0,80,30.27,10.0,NNE,3.5,-,N/A,,Clear,30,2013-09-17 03:53:00